EW1578 Weather Reports


Display with metric or nautical units.
time (UTC)temp
F
wind
direction
speed
MPH
gust
MPH
rain 1hr
in
rain 24hr
in
rain mn
in
humidity
%
barometer
mb
20260506191546 62 255 4.0 13.0 0.00 0.21 0.21 89 1005.1
20260506190044 61 232 0.0 10.0 0.00 0.21 0.21 89 1005.3
20260506184543 61 240 0.0 15.0 0.01 0.21 0.21 89 1005.5
20260506183042 61 229 0.0 12.0 0.01 0.21 0.21 90 1005.7
20260506181540 61 202 0.0 8.0 0.01 0.21 0.21 90 1005.8
20260506180046 61 238 2.0 12.0 0.02 0.21 0.21 89 1005.8
20260506174541 61 224 1.0 15.0 0.04 0.20 0.20 89 1005.8
20260506173035 61 214 4.0 11.0 0.06 0.20 0.20 89 1005.8
20260506171537 61 247 1.0 12.0 0.06 0.20 0.20 89 1005.8
20260506170032 61 205 3.0 11.0 0.06 0.19 0.19 89 1006.0
20260506164530 61 199 0.0 7.0 0.04 0.16 0.16 88 1006.1
20260506163049 61 217 1.0 7.0 0.03 0.14 0.14 88 1006.2
20260506161527 61 195 1.0 11.0 0.05 0.14 0.14 88 1005.9
20260506160024 62 232 5.0 12.0 0.07 0.13 0.13 88 1005.7
20260506154521 62 212 5.0 12.0 0.06 0.12 0.12 88 1006.3
20260506153020 61 180 1.0 9.0 0.06 0.11 0.11 88 1006.8
20260506151518 62 203 3.0 14.0 0.05 0.09 0.09 87 1006.9
20260506150012 62 196 5.0 13.0 0.03 0.06 0.06 87 1006.9
20260506144510 63 174 5.0 15.0 0.03 0.06 0.06 87 1006.7
20260506143008 62 205 0.0 12.0 0.03 0.05 0.05 87 1006.5
20260506141507 62 205 0.0 10.0 0.02 0.04 0.04 86 1006.8
20260506140006 62 206 3.0 7.0 0.02 0.03 0.03 85 1006.8
20260506134505 63 242 0.0 6.0 0.02 0.03 0.03 85 1006.6
20260506133001 63 242 1.0 9.0 0.02 0.02 0.02 85 1006.9
20260506131601 63 219 0.0 5.0 0.02 0.02 0.02 83 1007.1
20260506130100 63 250 3.0 10.0 0.01 0.01 0.01 82 1007.1
20260506124556 63 193 1.0 7.0 0.01 0.01 0.01 82 1007.1
20260506123052 64 219 2.0 9.0 0.00 0.00 0.00 80 1007.1
20260506121550 64 209 3.0 13.0 0.00 0.00 0.00 79 1006.9
20260506120056 65 240 2.0 9.0 0.00 0.00 0.00 78 1006.8
20260506114556 65 273 0.0 9.0 0.00 0.00 0.00 77 1006.8
20260506113042 65 171 2.0 12.0 0.00 0.00 0.00 76 1006.7
20260506111543 65 198 1.0 11.0 0.00 0.00 0.00 76 1006.6
20260506110039 66 180 4.0 13.0 0.00 0.00 0.00 75 1006.6
20260506104538 66 227 1.0 12.0 0.00 0.00 0.00 75 1006.2
20260506103034 66 227 1.0 10.0 0.00 0.00 0.00 75 1006.3
20260506101534 66 187 4.0 9.0 0.00 0.00 0.00 75 1006.1
20260506100030 66 209 0.0 6.0 0.00 0.00 0.00 74 1006.2
20260506094529 66 198 0.0 6.0 0.00 0.00 0.00 73 1006.3
20260506093058 66 215 0.0 10.0 0.00 0.00 0.00 72 1006.3
20260506091557 66 273 1.0 7.0 0.00 0.00 0.00 72 1006.2
20260506090053 66 224 0.0 4.0 0.00 0.01 0.00 71 1006.2
20260506084551 67 198 0.0 6.0 0.00 0.01 0.00 70 1006.3
20260506083054 67 178 1.0 10.0 0.00 0.01 0.00 70 1006.4
20260506081548 67 286 0.0 7.0 0.00 0.01 0.00 69 1006.3
20260506073010 68 221 0.0 7.0 0.00 0.01 0.00 65 1006.4
20260506071508 68 232 0.0 10.0 0.00 0.01 0.00 64 1006.4
20260506061559 69 196 2.0 16.0 0.00 0.01 0.00 60 1006.8
20260506044515 70 190 5.0 12.0 0.00 0.01 0.01 58 1007.3
20260506043015 70 211 4.0 15.0 0.00 0.01 0.01 57 1007.3
20260506041518 70 190 6.0 12.0 0.00 0.01 0.01 56 1007.5
20260506040037 70 192 4.0 12.0 0.00 0.01 0.01 56 1007.3
20260506034548 70 174 6.0 12.0 0.00 0.01 0.01 56 1007.4
20260506033042 70 202 2.0 14.0 0.00 0.01 0.01 55 1007.4
20260506031554 71 180 5.0 13.0 0.00 0.01 0.01 55 1007.3
20260506030039 71 202 5.0 12.0 0.00 0.01 0.01 54 1007.3
20260506024540 71 193 5.0 15.0 0.00 0.01 0.01 53 1007.2
20260506023038 72 188 5.0 14.0 0.00 0.01 0.01 52 1007.3
20260506021535 72 166 4.0 11.0 0.00 0.01 0.01 51 1007.5
20260506020035 73 197 4.0 12.0 0.00 0.01 0.01 50 1007.5
20260506014535 73 177 1.0 13.0 0.00 0.01 0.01 50 1007.3
20260506013036 73 213 3.0 11.0 0.00 0.01 0.01 48 1007.1
20260506011536 74 180 6.0 15.0 0.00 0.01 0.01 48 1006.9
20260506010031 74 215 3.0 9.0 0.00 0.01 0.01 49 1006.8
20260506004530 74 188 4.0 10.0 0.00 0.01 0.01 47 1006.6
20260506003030 74 182 0.0 8.0 0.00 0.01 0.01 47 1006.7
20260506001559 75 196 4.0 12.0 0.00 0.01 0.01 46 1006.4
20260505234604 76 184 6.0 15.0 0.00 0.01 0.01 46 1006.3
20260505233109 76 211 3.0 16.0 0.00 0.01 0.01 45 1006.1
20260505231559 77 200 4.0 14.0 0.00 0.01 0.01 44 1006.1
20260505230055 77 192 6.0 14.0 0.00 0.01 0.01 42 1005.9
20260505224553 78 225 6.0 18.0 0.00 0.01 0.01 41 1006.0
20260505223055 78 202 2.0 15.0 0.00 0.01 0.01 41 1005.8
20260505221552 80 200 5.0 18.0 0.00 0.01 0.01 40 1005.8
20260505220050 80 190 8.0 16.0 0.00 0.01 0.01 40 1005.7
20260505214522 80 201 7.0 23.0 0.00 0.01 0.01 39 1005.7
20260505213017 80 200 7.0 19.0 0.00 0.01 0.01 39 1005.8
20260505211512 81 177 5.0 19.0 0.00 0.01 0.01 40 1005.7
20260505210011 80 213 6.0 21.0 0.00 0.01 0.01 40 1005.6
20260505204510 81 181 9.0 23.0 0.00 0.01 0.01 39 1005.5
20260505203010 81 246 5.0 16.0 0.00 0.01 0.01 42 1005.5
20260505201507 80 223 7.0 23.0 0.00 0.01 0.01 42 1005.6
20260505200007 80 189 6.0 22.0 0.00 0.01 0.01 43 1005.8
20260505194506 81 282 6.0 20.0 0.00 0.01 0.01 44 1005.9
20260505193001 80 173 4.0 21.0 0.00 0.01 0.01 45 1005.8